This demonstration page uses our WeatherBlox Daily Observations layout. Learn more.

Left ArrowRight Arrow

39.12711, -84.51439

Hourly Observations for November 26, 2020

Temp ( °F °C ) Dew Point ( °F °C ) Humidity (%) Winds ( mph kmh ) Pressure ( in mb ) Visibility ( mi km ) Precip ( " mm )
12:53 am 00:53 Cloudy 54 12.2 49 9.4 83 83 SW 14 22 29.92 1013 10 16 0.01 0.25
1:25 am 01:25 Cloudy 54 12.2 49 9.4 83 83 WSW 12 19 29.92 1013 10 16 0.00 0.00
1:53 am 01:53 Cloudy 54 12.2 48 8.9 80 80 SW 9 15 29.92 1013 10 16 0.00 0.00
2:09 am 02:09 Cloudy 54 12.2 48 8.9 80 80 SW 9 15 29.93 1014 10 16 0.00 0.00
2:53 am 02:53 Cloudy 54 12.2 48 8.9 80 80 SW 10 17 29.95 1014 10 16 0.00 0.00
3:39 am 03:39 Cloudy 54 12.2 47 8.3 77 77 WSW 10 17 29.96 1015 10 16 0.00 0.00
3:53 am 03:53 Cloudy 54 12.2 47 8.3 77 77 SW 14 22 29.96 1015 10 16 0.00 0.00
4:53 am 04:53 Cloudy 53 11.7 47 8.3 80 80 SW 10 17 29.98 1015 10 16 0.00 0.00
5:53 am 05:53 Cloudy 52 11.1 47 8.3 83 83 SW 12 19 30.00 1016 10 16 0.00 0.00
6:01 am 06:01 Cloudy 52 11.1 48 8.9 86 86 SW 8 13 30.02 1016 10 16 0.00 0.00
6:28 am 06:28 Cloudy 52 11.1 47 8.3 83 83 SW 8 13 30.03 1017 10 16 0.00 0.00
6:41 am 06:41 Cloudy 52 11.1 47 8.3 83 83 SW 9 15 30.03 1017 10 16 0.00 0.00
6:53 am 06:53 Cloudy 52 11.1 47 8.3 83 83 SW 7 11 30.03 1017 10 16 0.00 0.00
7:53 am 07:53 Cloudy 52 11.1 47 8.3 83 83 SW 9 15 30.05 1018 10 16 0.00 0.00
8:53 am 08:53 Cloudy 52 11.1 47 8.3 83 83 SW 8 13 30.07 1018 10 16 0.00 0.00
9:53 am 09:53 Cloudy 52 11.1 47 8.3 83 83 WSW 7 11 30.09 1019 10 16 0.00 0.00
10:53 am 10:53 Cloudy 53 11.7 46 7.8 77 77 W 8 13 30.10 1019 10 16 0.00 0.00
11:53 am 11:53 Cloudy 54 12.2 47 8.3 77 77 W 7 11 30.10 1019 10 16 0.00 0.00
12:14 pm 12:14 Cloudy 54 12.2 46 7.8 75 75 WSW 8 13 30.09 1019 10 16 0.00 0.00
12:31 pm 12:31 Cloudy 54 12.2 46 7.8 75 75 SW 7 11 30.09 1019 10 16 0.00 0.00
12:53 pm 12:53 Cloudy 53 11.7 46 7.8 77 77 WNW 5 7 30.08 1019 10 16 0.00 0.00
1:53 pm 13:53 Cloudy 53 11.7 47 8.3 80 80 SSW 3 6 30.08 1019 10 16 0.00 0.00
2:53 pm 14:53 Cloudy 52 11.1 47 8.3 83 83 WSW 6 9 30.07 1018 10 16 0.00 0.00
3:53 pm 15:53 Cloudy with Light Rain 52 11.1 47 8.3 83 83 WSW 7 11 30.08 1019 10 16 0.00 0.00
4:53 pm 16:53 Cloudy 51 10.6 47 8.3 86 86 Calm 30.09 1019 10 16 0.00 0.00
5:53 pm 17:53 Cloudy 50 10 47 8.3 89 89 SSW 3 6 30.10 1019 10 16 0.00 0.00
6:53 pm 18:53 Cloudy 51 10.6 46 7.8 83 83 WSW 6 9 30.11 1020 10 16 0.00 0.00
7:53 pm 19:53 Cloudy 50 10 46 7.8 86 86 SW 5 7 30.12 1020 10 16 0.00 0.00
8:53 pm 20:53 Cloudy 49 9.4 46 7.8 90 90 WSW 3 6 30.13 1020 10 16 0.00 0.00
9:53 pm 21:53 Cloudy 49 9.4 46 7.8 90 90 Calm 30.13 1020 10 16 0.00 0.00
10:53 pm 22:53 Cloudy 49 9.4 46 7.8 90 90 SSW 3 6 30.12 1020 10 16 0.00 0.00
11:16 pm 23:16 Cloudy 49 9.4 46 7.8 90 90 Calm 30.13 1020 10 16 0.00 0.00
11:53 pm 23:53 Cloudy 50 10 42 5.6 74 74 S 8 13 30.12 1020 10 16 0.00 0.00

Powered by AerisWeather